sat.trackr.live / text

‹ back to catalog

STARLINK-3194

NORAD 49758 · 2021-115AL

PAYLOAD ACTIVE UNKNOWN

§ Identity

Operator
Country
US
Launch date
2021-12-02
Launch site
AFETR
Launch vehicle
Mass (kg)
RCS (m²)

Purposes: comms

External: N2YO · Heavens-Above · Gunter

§ Orbital elements

Epoch: 2026-09-20T04:46:42.312576Z

Period
93.85 min
Inclination
53.1610°
Eccentricity
0.0001114
Mean motion
15.34394160 rev/d
Perigee alt
462.0 km
Apogee alt
463.5 km
Semi-major
6,840.9 km
B*
2.2031e-5
RAAN
330.7954°
Arg perigee
84.3969°
Mean anomaly
275.7161°
Rev number
26,524

§ Raw data

STARLINK-31941 49758U 21115AL  26263.19910084  .00000368  00000+0  22031-4 0  99922 49758  53.1610 330.7954 0001114  84.3969 275.7161 15.34394160265242

JSON: /api/v1/satellites/49758 · /tle

For live sub-satellite position, see the globe view (requires WebGL).

§ Visibility from observer

Set your observer location to see the next 7 days of passes ≥ 10°. The values pass through the URL so the page stays shareable.

No JS? Fill the form by hand. The geolocation button needs JavaScript.